NWS Home NWS Lubbock West Texas Mesonet Latest Conditions as of 0849 PM, Wed Aug 16, 2017

Latest   N   C   S   Daily Sum   3hrΔ   24hrΔ   Soil Data 
Site Map   24hr Precip   72hr Precip   Google Plot


Station Time of Last Temp Dew Pt. RH Wind Direction Wind Speed Wind Gust Max Wind Max Temp Min Temp Max RH Min RH Altimeter 1HR Rain Today's Rain Solar Rad
Abernathy 5ENE  08:45 PM 78 65 69% NE34 15 mph 243° @ 0925 AM 87 67 99 42 30.01" 0 0 0
Aiken 3WSW  08:45 PM 76 70 81% NW55 16 mph 182° @ 0157 AM 88 67 100 39 30.01" 0 0 1
Amarillo 15NNW   08:45 PM 78 59 53% NE55 19 mph 313° @ 0924 AM 87 66 100 35 30.02" 0 0 1
Amarillo 7SSE  08:45 PM 75 61 63% NE66 22 mph 330° @ 1150 AM 85 67 96 36 30.04" 0 0 1
Amarillo 9NNE  08:45 PM 75 67 75% N33 16 mph 332° @ 1006 AM 85 66 100 39 30.01" 0 0.01 1
Amherst 1NE  08:45 PM 75 63 71% NE78 19 mph 340° @ 0115 PM 86 66 100 36 30.03" 0 0.01 0
Andrews 2E  08:45 PM 86 51 31% NE911 18 mph 358° @ 0535 PM 96 67 92 22 29.98" 0 0 2
Anton 6SSW  08:45 PM 76 64 70% NE88 17 mph 182° @ 0230 AM 90 65 100 28 30.01" 0 0 2
Aspermont 3NE  08:45 PM 83 63 52% SW69 23 mph 283° @ 0635 PM 98 72 92 41 29.87" 0 0 1
Big Bend NP - Persimmon Gap  08:45 PM 80 61 53% SE01 44 mph 154° @ 0554 PM 97 74 77 26 29.97" 0 0.02 2
Big Lake 1WNW  08:45 PM 84 70 63% S78 24 mph 186° @ 0945 AM 92 69 96 44 29.96" 0 0 0
Bootleg 11WNW  08:45 PM 70 59 66% E88 22 mph 342° @ 0912 AM 83 59 96 29 30.10" 0 0.01 2
Boys Ranch 1WSW  08:45 PM 78 60 54% NE33 23 mph 344° @ 1056 AM 87 64 97 31 30.01" 0 0 2
Brownfield 2S  08:45 PM 82 52 37% NE56 18 mph 25° @ 0220 PM 93 65 95 18 30.00" 0 0 0
Canadian 6E  08:45 PM 78 63 59% N1011 30 mph 290° @ 1237 AM 89 66 95 39 29.92" 0 0.03 0
Caprock Canyons State Park  08:45 PM 83 63 50% N68 19 mph 197° @ 0152 AM 93 69 97 27 29.95" 0 0 1
Childress 2NNE  08:45 PM 83 66 60% S912 21 mph 180° @ 1045 AM 96 72 95 28 29.89" 0 0 1
Clarendon 2WSW  08:45 PM 76 68 79% W45 22 mph 161° @ 0100 AM 88 70 94 45 29.96" 0 0 1
Claude 12SW  08:45 PM 75 65 70% N56 20 mph 180° @ 0431 AM 85 69 96 42 30.02" 0 0 1
Clyde 2WNW  08:45 PM 84 72 67% S811 29 mph 195° @ 0945 AM 93 74 92 53 29.92" 0 0 0
Colorado City 5NW  08:45 PM 69 66 91% N1011 53 mph 21° @ 0811 PM 97 68 97 44 29.97" 0.58 0.58 0
Coyanosa 2N  08:45 PM 93 49 22% E79 18 mph 293° @ 1227 PM 102 70 88 15 29.90" 0 0 1
Crowell 1E  08:45 PM 78 74 88% N66 24 mph 170° @ 0115 PM 97 73 97 45 29.87" 0.01 0.01 0
Dell City  08:45 PM 87 54 32% S23 12 mph 109° @ 0104 AM 94 65 83 20 30.00" 0 0 4
Denver City 7WNW  08:45 PM 77 53 45% NE78 22 mph 23° @ 0420 PM 91 61 99 20 30.01" 0 0 2
Dimmitt 2NE  08:45 PM 75 64 70% NE55 22 mph 203° @ 0450 AM 84 66 98 39 30.05" 0 0 2
Dora NM 2SW  08:45 PM 72 60 67% E57 21 mph 356° @ 1010 AM 87 62 100 26 30.06" 0 0 2
Dozier 3W  08:45 PM 82 67 59% NW912 18 mph 147° @ 0100 AM 94 69 98 38 29.91" 0 0 0
Floydada 2NNE  08:45 PM 75 66 77% NW56 19 mph 188° @ 0430 AM 90 68 100 27 29.99" 0 0 0
Fluvanna 3WNW  08:45 PM 76 64 70% SE710 43 mph 187° @ 0755 PM 93 69 90 36 29.95" 0.14 0.14 5
Fort Chadbourne  08:45 PM 88 72 60% SE1012 21 mph 174° @ 0159 PM 96 70 98 46 29.90" 0 0.01 0
Fort Lancaster  08:45 PM 88 72 60% S1115 18 mph 157° @ 0941 AM 94 72 96 42 29.93" 0 0 0
Fort Lewis CO  08:45 PM 63 33 32% W66 23 mph 309° @ 0257 PM 78 41 82 17 30.29" 0 0 41
Fort McKavett  08:45 PM 82 68 64% SE811 21 mph 163° @ 0937 AM 93 70 98 49 29.97" 0 0.02 0
Friona 2NE  08:45 PM 74 63 72% E67 20 mph 200° @ 0325 AM 84 63 98 37 30.06" 0 0.02 2
Gail 2ESE  08:45 PM 77 66 72% E58 41 mph 163° @ 0725 PM 96 68 94 39 29.92" 0 0.09 3
Goodlett 3W  08:45 PM 80 63 57% SE1317 35 mph 164° @ 0810 PM 97 72 91 37 29.87" 0 0 1
Goodnight  08:45 PM 75 65 71% NW55 19 mph 306° @ 1141 AM 87 68 100 44 30.00" 0 0 1
Graham 5SSW  08:45 PM 83 60 48% E811 27 mph 105° @ 0815 PM 96 69 89 21 29.97" 0 0 1
Guadalupe Mtns Natl Park  08:45 PM 75 46 36% NW910 28 mph 316° @ 0419 AM 85 67 72 20 30.16" 0 0 3
Guthrie 10WSW  08:45 PM 80 65 62% NW02 33 mph 225° @ 0615 PM 98 72 91 35 29.90" 0 0 1
Happy 1E  08:45 PM 76 63 65% NE56 22 mph 208° @ 0109 AM 85 68 97 38 30.04" 0 0 1
Hart 3N  08:45 PM 74 65 75% NW44 19 mph 207° @ 0500 AM 85 66 99 41 30.04" 0 0.01 2
Haskell 1NW  08:45 PM 89 67 52% S710 26 mph 199° @ 1145 AM 94 74 83 41 29.86" 0 0.01 0
Hereford 2NW  08:45 PM 75 55 52% E46 20 mph 214° @ 0340 AM 84 65 96 34 30.05" 0 0 2
Hobbs NM 5NW  08:45 PM 84 48 29% E67 19 mph 24° @ 0143 PM 94 64 98 17 30.04" 0 0 2
Jayton 1SSE  08:45 PM 78 67 72% SW68 48 mph 344° @ 0545 PM 98 71 92 35 29.90" 0 0.30 2
Junction 1SSW  08:45 PM 82 71 68% E67 22 mph 208° @ 0529 PM 98 72 99 41 29.97" 0 0.13 0
Knox City 3NW  08:45 PM 85 67 57% SW710 23 mph 186° @ 0315 PM 96 74 87 41 29.87" 0 0 1
Lake Alan Henry 1NW  08:45 PM 79 65 62% S710 56 mph 302° @ 0500 PM 98 72 85 33 29.93" 0 0.70 1
Lamesa 2SE  08:45 PM 86 54 35% NE710 17 mph 172° @ 1230 AM 95 67 97 26 29.96" 0 0 1
Levelland 4S  08:45 PM 75 63 68% NE45 18 mph 182° @ 0215 AM 89 65 95 28 30.02" 0 0 2
Lomax 1SSE  08:45 PM 76 67 74% SW710 68 mph 30° @ 0758 PM 99 68 96 30 29.96" 1.95 1.95 0
Lubbock 3WNW TTU  08:45 PM 81 57 45% N45 20 mph 196° @ 1255 AM 90 68 100 25 29.99" 0 0 1
McCamey 1SSW  08:45 PM 86 70 59% SE89 34 mph 164° @ 0554 PM 98 72 92 28 29.94" 0 0.16 2
McLean 1E  08:45 PM 77 63 63% N68 19 mph 285° @ 1100 AM 89 69 98 42 29.95" 0 0 1
Memphis 1NE  08:45 PM 84 65 55% NW68 17 mph 148° @ 0120 AM 95 70 97 25 29.90" 0 0 1
Menard 2NW   08:45 PM 77 67 71% S58 24 mph 158° @ 0720 PM 93 72 97 50 29.96" 0 0.03 0
Mertzon 3NNE  08:45 PM 84 73 69% S66 29 mph 187° @ 1036 AM 92 69 98 54 29.94" 0 0.01 0
Morton 1ENE  08:45 PM 74 65 76% E57 16 mph 345° @ 0105 PM 88 66 96 33 30.03" 0 0 2
Muleshoe 2SSW  08:45 PM 73 63 75% E56 23 mph 187° @ 0215 AM 87 64 99 37 30.04" 0 0 2
New Home  08:45 PM 79 61 53% NE44 16 mph 183° @ 0136 AM 92 65 97 25 30.00" 0 0 1
Northfield 1S  08:45 PM 83 64 54% NW79 23 mph 165° @ 0235 AM 96 70 95 26 29.90" 0 0 1
O'Donnell 1N  08:45 PM 82 53 38% NE67 17 mph 174° @ 0115 AM 93 67 100 19 29.98" 0 0 1
Odell 4ENE  08:45 PM 75 71 87% W2227 44 mph 245° @ 0836 PM 94 74 94 51 29.89" 0 0 0
Olton 6S  08:45 PM 75 65 72% NE34 19 mph 194° @ 0325 AM 86 68 96 35 30.02" 0 0 2
Paducah 10SW  08:45 PM 81 69 70% SW12 26 mph 169° @ 0650 PM 96 70 97 40 29.89" 0 0 1
Palo Duro Canyon SP Floor  08:45 PM 79 65 62% S23 19 mph 234° @ 1241 AM 91 70 93 39 29.98" 0 0 1
Palo Duro Canyon State Park Rim  08:45 PM 76 60 59% N12 23 mph 195° @ 1204 AM 86 68 94 43 30.03" 0 0 1
Pampa 2E  08:45 PM 75 61 63% N44 20 mph 313° @ 1225 PM 86 68 100 38 29.99" 0 0 1
Panhandle 1SSW  08:45 PM 75 60 59% N56 20 mph 307° @ 0201 PM 85 64 98 37 30.03" 0 0 1
Plains 3N  08:45 PM 78 59 54% E77 23 mph 168° @ 1205 AM 89 63 100 24 30.02" 0 0 2
Plainview 1S  08:45 PM 78 62 60% NW44 16 mph 328° @ 0210 PM 87 67 100 40 30.00" 0 0 1
Post 1NE  08:45 PM 81 63 56% SE912 18 mph 204° @ 0915 AM 97 71 84 23 29.96" 0 0 0
Ralls 1SE  08:45 PM 77 66 70% E34 15 mph 237° @ 0950 AM 91 66 95 32 29.99" 0 0 0
Reese Center  08:45 PM 77 62 62% E67 17 mph 189° @ 0235 AM 89 66 97 27 30.00" 0 0 0
Roaring Springs 3N  08:45 PM 80 67 67% SW68 22 mph 225° @ 0945 AM 96 70 99 28 29.94" 0 0 1
San Angelo 7NW  08:45 PM 86 66 53% S56 21 mph 169° @ 0715 PM 95 70 93 41 29.92" 0 0.02 0
Seagraves 1SW  08:45 PM 83 52 35% NE57 18 mph 166° @ 0110 AM 93 63 98 22 30.00" 0 0.01 1
Seminole 2NNE  08:45 PM 82 53 38% NE89 20 mph 3° @ 0300 PM 95 65 94 17 29.99" 0 0 2
Seymour 3NW  08:45 PM 88 71 60% SE57 24 mph 189° @ 0130 PM 96 74 90 45 29.85" 0 0 0
Sierra Blanca 1SSE  08:45 PM 85 47 26% NW910 29 mph 288° @ 1003 AM 91 70 64 22 30.08" 0 0 4
Silverton 7ESE  08:45 PM 75 62 65% N78 20 mph 192° @ 0320 AM 91 69 95 26 29.99" 0 0 1
Slaton 2NE  08:45 PM 81 56 43% N22 18 mph 199° @ 0335 AM 92 65 96 21 29.99" 0 0 1
Snyder 3E  08:45 PM 71 66 85% S1015 46 mph 22° @ 0655 PM 94 69 97 48 29.91" 0.01 0.09 0
Snyder 3SSW  08:45 PM 72 67 83% SE911 37 mph 187° @ 0745 PM 97 69 95 40 29.91" 0.01 0.22 0
Spur 1W  08:45 PM 79 63 58% S57 34 mph 152° @ 0600 PM 98 69 91 29 29.92" 0 0 5
St. Lawrence 5SW  08:45 PM 85 68 58% S1013 23 mph 154° @ 0705 PM 93 68 94 40 29.93" 0 0 1
Stamford 5ESE  08:45 PM 90 72 56% S913 26 mph 194° @ 1003 AM 97 74 91 46 29.87" 0 0 0
Sterling City 4WSW  08:45 PM 87 71 58% SE912 22 mph 173° @ 0937 AM 95 68 96 42 29.92" 0 0 0
Stinnett 1NNW  08:45 PM 79 59 49% N33 26 mph 349° @ 1103 AM 86 65 97 35 30.01" 0 0 1
Sundown 8WSW  08:45 PM 77 62 62% E78 19 mph 174° @ 1220 AM 90 63 97 27 30.02" 0 0.01 2
Sweetwater 11SW   08:45 PM 73 67 82% N1416 28 mph 179° @ 0946 AM 93 71 92 50 29.94" 0.01 0.01 0
Tahoka 3NNE  08:45 PM 78 57 49% NE89 19 mph 186° @ 0128 AM 95 67 93 17 29.98" 0 0 0
Tarzan 2WNW  08:45 PM 83 66 56% E1416 23 mph 24° @ 0630 PM 97 68 95 33 29.95" 0 0 1
Tatum NM 2SW  08:45 PM 73 58 60% E89 21 mph 350° @ 0140 PM 91 62 95 22 30.04" 0 0 2
Throckmorton 1SW  08:45 PM 87 73 65% S79 21 mph 163° @ 0115 PM 96 75 93 50 29.87" 0 0 0
Tulia 2ENE  08:45 PM 77 64 67% N44 23 mph 209° @ 0405 AM 86 68 100 41 30.02" 0 0 1
Turkey 2WSW  08:45 PM 81 67 63% NW79 22 mph 186° @ 0150 AM 94 71 99 28 29.93" 0 0 1
Umbarger 3NNE  08:45 PM 74 64 71% NE44 23 mph 202° @ 0214 AM 83 66 96 44 30.05" 0 0 1
Vigo Park  08:45 PM 76 62 62% N68 21 mph 197° @ 1208 AM 88 68 99 38 30.02" 0 0 1
Wall 2E  08:45 PM 84 72 67% S45 22 mph 180° @ 0129 PM 93 72 96 50 29.93" 0 0.10 0
Weinert 2NNE  05:20 PM 94 74 53% SW68 22 mph 204° @ 1045 AM 96 73 93 47 29.84" 0 0 101
Welch  08:45 PM 83 53 36% NE88 17 mph 28° @ 0308 PM 96 65 98 19 29.99" 0 0 1
White River Lake 6NW  08:45 PM 80 63 59% SW45 19 mph 311° @ 0550 PM 95 68 93 26 29.95" 0 0 1
Wolfforth 6SSW  08:45 PM 76 63 66% NE66 19 mph 178° @ 1230 AM 90 66 99 27 30.00" 0 0 1

West Texas Mesonet Home   Site Map/Menu  NWS Lubbock Soil Data  Daily Summary Page  24hr Precip  72hr Precip  Google Plot